[[{"header":{"parameterUnit":"m.s-1","parameterCategory":1,"la1":30.2991,"la2":30.254,"lo1":-89.0895,"lo2":-89.0444,"dy":0.0017,"dx":0.0017,"nx":28,"ny":28,"refTime":"2024-06-26T09:00:00:Z","depth":0,"parameterNumber":2,"parameterNumberName":"U-component_of_WINDS"},"data":[0,0,0,0,0,0,0,0,0,0,0,0,0,0,0,0,0,0,0,0,0,0,0,0,0,0,0,0,0,0,0,0,0,0,0,0,0,0,0,0,0,0,0,0,0,0,0,0,0,0,0,0,0,0,0,0,0,0,6.6031,6.6034,0,6.6267,6.627,6.6273,6.6222,6.6218,6.6213,6.6209,6.6454,6.6464,6.6474,0,0,0,0,0,0,0,0,0,0,0,0,0,6.5537,6.5546,6.6031,6.6034,6.6037,6.6267,6.627,6.6273,6.6223,6.6217,6.6212,6.6207,6.645,6.6463,6.6475,0,0,0,0,0,0,0,0,0,0,0,0,0,6.576,6.5549,6.603,6.6039,6.6042,6.6266,6.627,6.6274,6.6224,6.6217,6.6211,6.6204,6.6446,6.6461,6.6477,6.6708,0,0,6.6526,6.6533,0,0,0,0,0,0,0,0,6.5747,6.5778,6.6035,6.6039,6.6043,6.6208,6.6185,6.642,6.6226,6.6155,6.6209,6.6201,6.6377,6.6399,6.6457,6.6719,6.6729,6.6527,6.6537,6.6544,6.6548,0,0,0,0,0,0,0,6.5732,6.5768,6.6124,6.6039,6.6044,6.6032,6.6056,6.623,6.6301,6.6161,6.6158,6.6186,6.6378,6.6442,6.6463,6.6733,6.6527,6.6541,6.6551,6.6557,6.7193,6.72,0,0,0,0,0,0,6.5713,6.5755,6.6117,6.6132,6.5876,6.6046,6.6073,6.6162,6.6298,6.6313,6.6191,6.6183,6.6418,6.6444,6.6471,6.6748,6.6543,6.6558,6.6568,6.7186,6.7195,6.7203,0,0,0,0,0,0,6.5702,6.5746,6.6107,6.5943,6.5988,6.6061,6.6162,6.617,6.6234,6.6322,6.6334,6.6244,6.6414,6.6449,6.6648,6.6756,6.6566,6.658,6.7177,6.7188,6.7199,6.7305,0,0,0,0,0,0,6.5689,6.5742,6.583,6.5945,6.5997,6.6281,6.6168,6.618,6.6261,6.6252,6.6374,6.6388,6.6412,6.6625,6.6664,6.6774,6.6592,6.7168,6.7182,6.7195,6.7292,6.7318,6.734,0,0,0,0,0,6.5671,6.5852,6.5835,6.5879,6.6109,6.6287,6.6317,6.634,6.627,6.6359,6.6415,6.6384,6.6738,6.6646,6.669,6.6806,6.7161,6.7178,6.7194,6.7281,6.7313,6.734,0,0,0,0,0,0,6.575,6.5867,6.585,6.6073,6.617,6.6278,6.6391,6.6373,6.6492,6.6479,6.6503,6.6531,6.6734,6.679,6.6685,6.7035,6.694,6.6966,6.6991,6.7022,6.7045,6.7027,6.6606,0,0,0,0,0,6.5793,6.5927,6.6023,6.6211,6.626,6.6318,6.6396,6.6405,6.6507,6.6548,6.6619,6.672,6.6853,6.6941,6.7069,6.73,6.7325,6.7402,6.7426,6.7445,6.7467,6.7591,6.7626,6.7257,6.7257,6.7256,0,0,6.5884,6.5965,6.6048,6.6229,6.6305,6.6444,6.6353,6.6504,6.6607,6.6572,6.6763,6.6819,6.6933,6.7148,6.7247,6.7202,6.7575,6.7466,6.7481,6.7493,6.7612,6.7647,6.7678,6.7268,6.7266,6.7264,0,0,6.6119,6.6195,6.6358,6.6436,6.6552,6.6589,6.6628,6.6739,6.6774,6.6966,6.6942,6.7065,6.7296,6.7377,6.7448,6.7713,6.7688,6.7754,6.788,6.8001,6.803,6.8056,6.8148,6.8181,6.7776,6.7776,6.7777,0,6.6218,6.6425,6.6445,6.6598,6.6677,6.6651,6.6816,6.6891,6.7043,6.7099,6.7046,6.7332,6.7407,6.764,6.7704,6.7764,6.7809,6.774,6.8024,6.805,6.8075,6.8163,6.8198,6.7783,6.7783,6.7782,6.7781,0,6.6539,6.6684,6.6802,6.6947,6.7041,6.7199,6.7243,6.7335,6.7336,6.7378,6.7573,6.7662,6.7806,6.7863,6.7866,6.8096,6.8064,6.8018,6.7922,6.8117,6.82,6.8234,6.7794,6.7791,6.7789,6.7787,0,0,6.6832,6.6985,6.7028,6.7093,6.7218,6.733,6.7487,6.7627,6.7704,6.781,6.7941,6.8136,6.8093,6.8174,6.8186,6.8292,6.8493,6.8232,6.8235,6.8276,6.875,6.8782,6.8821,6.8478,6.8484,6.849,6.8739,0,6.7077,6.7352,6.7374,6.7622,6.7754,6.773,6.7867,6.7958,6.8001,6.812,6.8168,6.8305,6.8239,6.8287,6.8392,6.8447,6.8588,6.8429,6.8599,6.8605,6.8569,6.8865,6.8901,6.9132,6.8772,6.8778,6.8782,0,6.7401,6.7514,6.7774,6.7879,6.7935,6.8057,6.8186,6.83,6.8403,6.8427,6.8517,6.8514,6.8674,6.8573,6.8794,6.8685,6.8756,6.8794,6.8803,6.8819,6.8704,6.8887,6.9207,6.9241,6.8834,6.883,6.8826,0,6.7584,6.7803,6.7986,6.8043,6.817,6.8256,6.8313,6.8409,6.8491,6.8604,6.8657,6.8788,6.8859,6.8961,6.8992,6.8916,6.9212,6.9114,6.9235,6.9234,6.9297,6.9292,6.9631,6.9347,6.9346,6.9345,6.9345,0,6.7855,6.8015,6.807,6.8183,6.8361,6.8384,6.856,6.8612,6.8698,6.882,6.8808,6.8923,6.8959,6.908,6.9107,6.9284,6.9317,6.9341,6.9345,6.9341,6.9337,6.9386,6.937,6.9355,6.9353,6.9351,6.9349,0,6.8091,6.8134,6.8332,6.8435,6.8465,6.8591,6.8679,6.8788,6.8828,6.8983,6.9021,6.9085,6.9227,6.9269,6.9441,6.9458,6.9665,6.9657,6.963,6.963,6.9747,6.9735,7.0128,7.018,6.9863,6.9866,6.9869,0,6.826,6.8382,6.8497,6.8577,6.8637,6.8768,6.885,6.8878,6.8965,6.909,6.9183,6.9323,6.9436,6.9664,6.9726,6.9856,6.9849,6.9978,6.9869,6.9859,6.9848,6.984,6.9851,6.9998,7.0001,7.0004,7.0006,0,6.8554,6.8569,6.8688,6.8815,6.8914,6.9016,6.9113,6.918,6.9222,6.932,6.9464,6.9551,6.9725,6.9863,6.9995,7.0054,7.0037,7.004,7.0075,7.007,7.0048,7.0059,6.9684,7.0031,7.0028,7.0027,7.0025,7.0024,6.876,6.8866,6.8964,6.9096,6.9172,6.9263,6.9369,6.9422,6.9542,6.9685,6.9694,6.985,6.9948,7.0123,7.0189,7.031,7.0273,7.0324,7.0336,7.0348,7.0356,7.0031,7.0335,7.0334,7.0334,7.0333,7.0333,0,6.9052,6.9113,6.9235,6.937,6.9475,6.9449,6.9555,6.9644,6.978,6.9873,6.9984,7.0148,7.0282,7.0354,7.0487,7.0571,7.0566,7.0605,7.0598,7.0611,7.0383,7.0339,7.0606,7.0606,7.0606,7.0606,7.0605,7.0605,6.9216,6.9393,6.9419,6.9634,6.9694,6.9845,6.9907,6.9991,7.0064,7.0248,7.0358,7.0404,7.0488,7.0627,7.0748,7.0766,7.0814,7.0857,7.087,7.0655,7.0627,7.0601,7.0559,7.0868,7.0868,7.1087,7.1089,7.1091]},{"header":{"parameterUnit":"m.s-1","parameterCategory":1,"la1":30.2991,"la2":30.254,"lo1":-89.0895,"lo2":-89.0444,"dy":0.0017,"dx":0.0017,"nx":28,"ny":28,"refTime":"2024-06-26T09:00:00:Z","depth":0,"parameterNumber":3,"parameterNumberName":"V-component_of_WINDS"},"data":[0,0,0,0,0,0,0,0,0,0,0,0,0,0,0,0,0,0,0,0,0,0,0,0,0,0,0,0,0,0,0,0,0,0,0,0,0,0,0,0,0,0,0,0,0,0,0,0,0,0,0,0,0,0,0,0,0,0,1.5445,1.5445,0,1.5429,1.5428,1.5428,1.5378,1.5377,1.5375,1.5374,1.5359,1.5359,1.536,0,0,0,0,0,0,0,0,0,0,0,0,0,1.5431,1.5432,1.5445,1.5445,1.5444,1.5429,1.5428,1.5428,1.5378,1.5377,1.5375,1.5374,1.5358,1.5359,1.536,0,0,0,0,0,0,0,0,0,0,0,0,0,1.5429,1.5432,1.5445,1.5417,1.5415,1.5429,1.5428,1.5428,1.5378,1.5377,1.5375,1.5373,1.5358,1.5359,1.536,1.5399,0,0,1.5363,1.5363,0,0,0,0,0,0,0,0,1.5429,1.5429,1.5422,1.5419,1.5416,1.5403,1.5418,1.5418,1.5379,1.5392,1.5374,1.5372,1.5375,1.5374,1.5375,1.5398,1.5398,1.5363,1.5363,1.5364,1.5364,0,0,0,0,0,0,0,1.5429,1.5429,1.5438,1.5422,1.5418,1.5406,1.5403,1.5418,1.5393,1.5391,1.5387,1.5386,1.5373,1.5374,1.5374,1.5398,1.5363,1.5364,1.5364,1.5365,1.5451,1.5452,0,0,0,0,0,0,1.5433,1.543,1.5439,1.5438,1.5419,1.5407,1.5405,1.5409,1.5393,1.5389,1.5387,1.5384,1.5373,1.5373,1.5373,1.5417,1.5364,1.5365,1.5365,1.5449,1.5451,1.5453,0,0,0,0,0,0,1.5433,1.5434,1.544,1.5433,1.5433,1.5409,1.5415,1.541,1.5411,1.539,1.5386,1.5393,1.5372,1.5372,1.5393,1.5416,1.5365,1.5366,1.5447,1.545,1.5452,1.5507,0,0,0,0,0,0,1.5433,1.5435,1.545,1.5434,1.5433,1.546,1.5416,1.5411,1.5413,1.5408,1.5394,1.539,1.5371,1.5392,1.5394,1.5417,1.5367,1.5445,1.5448,1.5451,1.5503,1.5511,1.5518,0,0,0,0,0,1.5433,1.5466,1.5451,1.5452,1.5451,1.5461,1.5461,1.5437,1.5415,1.5429,1.5416,1.5391,1.5413,1.5394,1.5396,1.542,1.5443,1.5447,1.5451,1.5499,1.5509,1.5518,0,0,0,0,0,0,1.5487,1.5464,1.5446,1.5476,1.5471,1.5453,1.5471,1.5449,1.545,1.5446,1.5416,1.5414,1.5438,1.5431,1.541,1.5456,1.5424,1.5428,1.546,1.5469,1.5477,1.5478,1.5367,0,0,0,0,0,1.5502,1.5512,1.5491,1.5519,1.5517,1.5494,1.5498,1.548,1.5473,1.5471,1.5459,1.5454,1.5459,1.5464,1.5468,1.5501,1.5497,1.5518,1.5526,1.5532,1.5536,1.5552,1.5561,1.5466,1.5466,1.5466,0,0,1.5534,1.5522,1.5531,1.553,1.5524,1.5534,1.5493,1.5506,1.5513,1.5473,1.5492,1.5483,1.5475,1.5501,1.5512,1.5496,1.5561,1.5537,1.5542,1.5543,1.5557,1.5566,1.5574,1.5468,1.5468,1.5467,0,0,1.5597,1.559,1.5612,1.5606,1.5597,1.5581,1.5586,1.5571,1.5563,1.5581,1.5551,1.5559,1.5569,1.5565,1.5564,1.5623,1.56,1.5625,1.5665,1.568,1.5688,1.5694,1.5715,1.5723,1.5629,1.5629,1.5629,0,1.5638,1.5653,1.5626,1.5641,1.5641,1.5604,1.5625,1.5621,1.5614,1.5615,1.5596,1.5607,1.56,1.5624,1.5638,1.5639,1.5643,1.5627,1.5689,1.5695,1.5701,1.572,1.5728,1.5632,1.5632,1.5632,1.5631,0,1.5703,1.5713,1.5732,1.5725,1.5727,1.5746,1.5721,1.5726,1.5708,1.5694,1.5712,1.5701,1.5701,1.5705,1.5688,1.5727,1.5717,1.5694,1.5661,1.5713,1.5731,1.5738,1.5637,1.5636,1.5635,1.5634,0,0,1.5802,1.5778,1.5786,1.5782,1.5768,1.5775,1.5791,1.5791,1.5796,1.5792,1.5804,1.5813,1.5791,1.579,1.5771,1.5785,1.5831,1.576,1.5759,1.5773,1.5873,1.589,1.5899,1.5815,1.5817,1.5818,1.5873,0,1.5861,1.5887,1.5863,1.5893,1.5902,1.5866,1.5879,1.5872,1.5859,1.5864,1.5849,1.5856,1.5827,1.5826,1.5838,1.5823,1.5851,1.5819,1.5826,1.5827,1.583,1.5908,1.5927,1.598,1.588,1.5881,1.5882,0,1.5935,1.5933,1.5965,1.5947,1.595,1.5963,1.596,1.5965,1.5956,1.5945,1.5943,1.592,1.5933,1.5901,1.5919,1.5897,1.5899,1.5892,1.5893,1.5893,1.5858,1.591,1.5996,1.6004,1.5893,1.5892,1.5891,0,1.6003,1.6009,1.6028,1.6025,1.6006,1.6015,1.6008,1.5996,1.5998,1.5995,1.5995,1.5994,1.5994,1.5994,1.597,1.5949,1.5991,1.5957,1.5982,1.5983,1.5993,1.5993,1.6081,1.5994,1.5994,1.5994,1.5994,0,1.6073,1.6093,1.6058,1.607,1.6091,1.6062,1.6084,1.6072,1.6062,1.6071,1.604,1.6048,1.6017,1.6022,1.6004,1.6021,1.6021,1.6012,1.6007,1.6015,1.6016,1.6016,1.6012,1.5996,1.5995,1.5995,1.5995,0,1.6153,1.613,1.6148,1.6128,1.6123,1.614,1.6122,1.6131,1.6115,1.6127,1.6127,1.6103,1.6107,1.6083,1.6083,1.6071,1.6097,1.6086,1.61,1.6097,1.6123,1.6121,1.6214,1.6224,1.6131,1.6132,1.6133,0,1.6199,1.6214,1.6194,1.6197,1.6191,1.6197,1.6197,1.6169,1.617,1.616,1.617,1.6172,1.6171,1.618,1.6161,1.6161,1.6149,1.6182,1.6149,1.6156,1.6149,1.6149,1.615,1.6189,1.619,1.6191,1.6192,0,1.6283,1.627,1.6272,1.627,1.6271,1.6268,1.6262,1.6267,1.6236,1.6239,1.6242,1.6242,1.6241,1.6243,1.6238,1.623,1.6206,1.6202,1.6208,1.6216,1.6224,1.6219,1.6119,1.62,1.6199,1.6199,1.6198,1.6198,1.6347,1.6358,1.6345,1.6348,1.634,1.6336,1.6343,1.6328,1.633,1.6327,1.631,1.6317,1.6305,1.6296,1.629,1.6294,1.6279,1.6287,1.6289,1.6292,1.6296,1.6223,1.6293,1.6293,1.6293,1.6293,1.6292,0,1.6429,1.6418,1.6421,1.6414,1.6416,1.6392,1.6384,1.6387,1.6393,1.6384,1.6384,1.6387,1.6388,1.637,1.6368,1.6375,1.6364,1.6375,1.6375,1.6373,1.6311,1.6306,1.6384,1.6384,1.6384,1.6384,1.6384,1.6384,1.6471,1.6488,1.6474,1.6486,1.6475,1.6481,1.6479,1.6474,1.6466,1.6472,1.6472,1.6459,1.6446,1.6443,1.6442,1.6437,1.6437,1.6453,1.6444,1.6386,1.6377,1.6369,1.6364,1.6454,1.6454,1.6505,1.6506,1.6506]}]]